Location: Unspecified
(0.0000°N, 0.0000°E)
Time: 10:19:06
(UTC+00:00)

Hubble Space Telescope - Pass Details

Date: 28 November 2022
Orbit: 519 x 523 km, 28.5° (Epoch: 28 November)

Event Time Altitude Azimuth Distance (km) Brightness Sun altitude
Rises 18:55:25 0° 278° (W) 2,720 5.4 -15.6°
Reaches altitude 10° 18:58:00 10° 265° (W) 1,830 4.7 -16.2°
Maximum altitude 19:01:30 25° 209° (SSW) 1,152 3.0 -17.1°
Drops below altitude 10° 19:05:01 10° 153° (SSE) 1,834 3.4 -17.9°
Enters shadow 19:07:16 - 141° (SE) 2,607 4.1 -18.4°
